Regional Weather Roundup
Issued by NWS

Home | Current Version | Previous Version | Graphics & Text | Print | Product List | Glossary On
Versions: 1 2 3 4 5 6 7 8 9 10 11 12 13 14 15 16 17 18 19 20 21 22 23 24 25 26 27 28 29 30 31 32 33 34 35 36 37 38 39 40 41 42 43 44 45 46 47 48 49 50
000
ASUS43 KOAX 031202
RWRNE

WEATHER ROUNDUP FOR NEBRASKA
NATIONAL WEATHER SERVICE OMAHA NE
700 AM CDT THU SEP 03 2015

NOTES: SATELLITE DATA IS BEING USED TO AUGMENT CLOUD COVER ABOVE
       12000 FEET.
       "FAIR" INDICATES FEW OR NO CLOUDS BELOW 12,000 FEET WITH NO
       SIGNIFICANT WEATHER AND/OR OBSTRUCTIONS TO VISIBILITY.

  * THESE STATIONS DO NOT REPORT WEATHER SUCH AS RAIN...SNOW OR FOG.

NEZ001>004-019>022-054>056-031300-
NEBRASKA PANHANDLE

CITY           SKY/WX    TMP DP  RH WIND       PRES   REMARKS
SCOTTSBLUFF    PTCLDY    59  52  77 W3        29.91S
6HR MIN TEMP:  58; 6HR MAX TEMP:  70;

ALLIANCE       PTCLDY    55  50  83 CALM      29.90R
6HR MIN TEMP:  54; 6HR MAX TEMP:  63;

CHADRON        MOCLDY    64  47  53 SW6       29.83S
6HR MIN TEMP:  61; 6HR MAX TEMP:  74;

KIMBALL        PTCLDY    56  46  67 W5        29.97S
SIDNEY         CLEAR     55  45  68 SW3       29.94R
6HR MIN TEMP:  54; 6HR MAX TEMP:  66;

$$

NEZ057>060-069>072-079>082-031300-
SOUTHWEST NEBRASKA

CITY           SKY/WX    TMP DP  RH WIND       PRES   REMARKS
NORTH PLATTE   CLEAR     60  58  92 CALM      29.84R
6HR MIN TEMP:  59; 6HR MAX TEMP:  67;

IMPERIAL       CLEAR     58  53  84 CALM      29.86R
6HR MIN TEMP:  57; 6HR MAX TEMP:  74;

LEXINGTON      CLEAR     67  60  80 SE6       29.83R
MC COOK        CLEAR     63  56  78 SE5       29.82S
6HR MIN TEMP:  63; 6HR MAX TEMP:  77;

OGALLALA       CLEAR     60  56  89 W6        29.86F
$$

NEZ005>010-023>029-035>040-094-031300-
NORTH CENTRAL NEBRASKA

CITY           SKY/WX    TMP DP  RH WIND       PRES   REMARKS
VALENTINE      CLEAR     60  57  89 CALM      29.82R
6HR MIN TEMP:  59; 6HR MAX TEMP:  76;

BROKEN BOW     CLEAR     60  58  92 CALM      29.83R
6HR MIN TEMP:  60; 6HR MAX TEMP:  64;

O`NEILL        CLEAR     64  62  96 S7        29.81S
ORD            CLEAR     61  60  97 CALM      29.81R
6HR MIN TEMP:  59; 6HR MAX TEMP:  70;

THEDFORD       CLEAR     59  57  94 CALM      29.85S
$$

NEZ041-046>049-061>064-073>077-083>087-031300-
SOUTH CENTRAL NEBRASKA

CITY           SKY/WX    TMP DP  RH WIND       PRES   REMARKS
GRAND ISLAND   CLEAR     71  62  73 S10       29.83R
6HR MIN TEMP:  71; 6HR MAX TEMP:  74;

AURORA         CLEAR     69  65  85 S7        29.83R
HASTINGS       CLEAR     71  62  73 S9        29.83S
6HR MIN TEMP:  71; 6HR MAX TEMP:  77;

HEBRON         CLEAR     73  61  65 S9        29.84S
HOLDREGE       PTCLDY    67  59  76 S6        29.83S
KEARNEY *      CLEAR     68  59  73 S5        29.83R
YORK           CLEAR     68  64  88 S8        29.84S
$$

NEZ011>018-030>034-042>045-031300-
NORTHEAST NEBRASKA

CITY           SKY/WX    TMP DP  RH WIND       PRES   REMARKS
NORFOLK        CLEAR     64  63  96 E5        29.82S
6HR MIN TEMP:  63; 6HR MAX TEMP:  74;

ALBION         CLEAR     65  62  91 SE3       29.83R
BLAIR          FAIR      71  66  85 S6        29.85S
COLUMBUS *     CLEAR     70  61  73 S3        29.83S
FREMONT        CLEAR     71  67  87 SE6       29.84S
TEKAMAH        CLEAR     69  68  96 SE6       29.84R
6HR MIN TEMP:  69; 6HR MAX TEMP:  73;

$$

NEZ050>053-065>068-078-088>093-031300-
SOUTHEAST NEBRASKA

CITY           SKY/WX    TMP DP  RH WIND       PRES   REMARKS
LINCOLN        CLEAR     75  65  70 S15       29.83S
6HR MIN TEMP:  74; 6HR MAX TEMP:  76;

OMAHA EPPLEY   PTCLDY    74  68  81 S12       29.85R
6HR MIN TEMP:  74; 6HR MAX TEMP:  78;

BEATRICE       CLEAR     73  65  74 S8        29.86S
FALLS CITY     LGT RAIN  73  68  84 S7        29.89R
6HR MIN TEMP:  73; 6HR MAX TEMP:  77; 6HR PCP: TRACE;

NEBRASKA CITY  PTCLDY    72  64  78 S10       29.87S
PLATTSMOUTH    MOCLDY    72  66  81 SE10      29.86R
$$

NEZ044-045-051>053-067-031300-
OMAHA AREA

CITY           SKY/WX    TMP DP  RH WIND       PRES   REMARKS
EPPLEY FIELD   PTCLDY    74  68  81 S12       29.85R
6HR MIN TEMP:  74; 6HR MAX TEMP:  78;

BLAIR          CLEAR     71  66  85 S6        29.85S
FREMONT        CLEAR     71  67  87 SE6       29.84S
MILLARD        CLEAR     72  68  88 SE5       29.84S
OFFUTT AFB     CLEAR     70  68  92 E8        29.84S
PLATTSMOUTH    MOCLDY    72  66  81 SE10      29.86R
WAHOO          FAIR      67  66  94 SE5       29.84S
$$



USA.gov is the U.S. government's official web portal to all federal, state and local government web resources and services.